"Pseudo-MPEC" for P11C06o

Created 2022 Nov 26 22:22:17 UT using Find_Orb

Click here for an explanation of pseudo-MPECs

 
 Astrometry: 
     P11C06o* C2022 11 23,?N8Y('h2QxcCAstrometrymof/^rM+9/bw1A,=:4UMp7;)B:FeaF51
     P11C06o  C2022 11 23eZNtredacted;s.Fm_T!Rclick3v8*jL:BQY%sML9here5kM=?F%F51
     P11C06o  C2022 11 23e!fors%UOZ-cWyG!Ka?HlSM@ZSYIx`@=aF]b?qHP%e-X3/^N(,A5F51
     P11C06o  C2022 11 233apAt??Z`7u`N]YDU't4m\lZEP.M6)cJD3ERSlU(,]fe'uGc:8/tF51
     P11C06o mC2022 11 24.21556404 33 50.605+19 39 24.12   ~BO5q 21.13GVNEOCPI52
     P11C06o mC2022 11 24.22974204 33 51.048+19 39 14.90   ~BO5q 20.50GVNEOCPI52
     P11C06o mC2022 11 24.23593504 33 51.289+19 39 10.66   ~BO5q 21.45GVNEOCPI52
     P11C06o mC2022 11 26.19050704 35 09.892+19 16 02.42   ~BQ5M 21.31GVNEOCPI52
     P11C06o mC2022 11 26.19535604 35 10.000+19 15 59.33   ~BQ5M 21.32GVNEOCPI52
     P11C06o mC2022 11 26.20413004 35 10.352+19 15 53.35   ~BQ5M 21.58GVNEOCPI52
     P11C06o mC2022 11 26.20884104 35 10.518+19 15 49.61   ~BQ5M 20.94GVNEOCPI52
     P11C06o KC2022 11 26]`\0PfMT0`y)m69Me^eFY2v:,TwF7bv#5QgP*pw`j*Yjo=0;QvM#587
     P11C06o KC2022 11 26XY10%HrV%aamkk=hH$3Rexplanation]#!Tgp+dh3A!lR1L!)\DC587
     P11C06o KC2022 11 26M6hkX6IkB,IC`6nF\YA]%NH+)+gcP07fy\Di+j2k9/+OWQ*:0%Qj587

Station data:
(587) Sormano  (N45.882946 E9.229180)  Italy.  Observers E. Colzani, E. Valli.
    Measurer P. Sicoli. 0.5-m f/6.8 reflector + CCD.
(F51) Pan-STARRS 1, Haleakala  (N20.707234 W156.255910)  US/Hawaii.
   Observers J. Bulger, T. Lowe, A. Schultz, M. Willman. Measurers K.
   Chambers, S. Chastel, T. de Boer, L. Denneau, J. Fairlamb, H. Flewelling,
   M. Huber, C.-C. Lin, E. Magnier, Y. Ramanjooloo, R. Wainscoat, R. Weryk.
   1.8-m Ritchey-Chrétien + CCD.
(I52) Steward Observatory, Mt. Lemmon Station  (N32.442544 W110.788920)
   US/Arizona.  Observers T. A. Pruyne, B. M. Africano, E. J. Christensen, G.
   A. Farneth, D. C. Fuls, A. R. Gibbs, A. D. Grauer, H. Gröller, J. A.
   Johnson, R. A. Kowalski, S. M. Larson, G. J. Leonard, D. Rankin, R. L.
   Seaman, F. C. Shelly, K. W. Wierzchoś. 1.0-m reflector + CCD.

Orbital elements:  P11C06o
   Perihelion 2023 Jan 2.64734 +/- 0.506 TT = 15:32:09 (JD 2459947.14734)
Epoch 2022 Nov 26.0 TT = JDT 2459909.5   Earth MOID: 0.2798   Ma: 0.0246
M 350.91028772 +/- 0.29             (J2000 ecliptic)          AutoNEOCP
n   0.24144370 +/- 0.00627          Peri.  221.47780 +/- 0.54
a   2.55422286 +/- 0.0442           Node   234.78463 +/- 0.06
e   0.5070613 +/- 0.00674           Incl.    3.82443 +/- 0.054
P   4.08                   H 22.6   G  0.15   U  9.3
q 1.25907505 +/- 0.00527    Q 3.84937067 +/- 0.0837
From 14 observations 2022 Nov. 23-26; mean residual 0".23
Residuals in arcseconds: 
221123 F51  .03+  .01-    221124 I52  .23-  .20+    221126 I52  .37+  .33-    
221123 F51  .06+  .05-    221124 I52  .35+  .13+    221126 587  .19+  .18+    
221123 F51  .01-  .14-    221126 I52  .01-  .19-    221126 587  .27+  .02+    
221123 F51  .17-  .04+    221126 I52  .74-  .07+    221126 587  .35-  .04-    
221124 I52  .04+  .07-    221126 I52  .18+  .15+    

Ephemerides (geocentric):
Date (UTC) HH   RA             Dec           delta  r     elong  mag " sig PA
---- --------  ------------   ------------  ------ ------ -----  --- --------
2022 11 26 22  04 35 37.679   +19 07 23.56  .33507 1.3204 173.5 21.3 .210 113
2022 11 26 23  04 35 39.336   +19 06 53.13  .33493 1.3203 173.6 21.3 .207 110
2022 11 27 00  04 35 40.994   +19 06 22.68  .33479 1.3201 173.6 21.3 .204 108
2022 11 27 01  04 35 42.651   +19 05 52.21  .33465 1.3200 173.6 21.3 .201 105
2022 11 27 02  04 35 44.308   +19 05 21.73  .33451 1.3199 173.7 21.2 .199 103
2022 11 27 03  04 35 45.965   +19 04 51.22  .33437 1.3197 173.7 21.2 .196 100
2022 11 27 04  04 35 47.621   +19 04 20.70  .33423 1.3196 173.7 21.2 .194  97
2022 11 27 05  04 35 49.278   +19 03 50.15  .33409 1.3195 173.7 21.2 .193  94
2022 11 27 06  04 35 50.935   +19 03 19.59  .33395 1.3193 173.8 21.2 .192  90
2022 11 27 07  04 35 52.591   +19 02 49.01  .33381 1.3192 173.8 21.2 .191  87
2022 11 27 08  04 35 54.248   +19 02 18.41  .33367 1.3191 173.8 21.2 .191  84
2022 11 27 09  04 35 55.904   +19 01 47.79  .33354 1.3189 173.9 21.2 .191  80
2022 11 27 10  04 35 57.561   +19 01 17.15  .33340 1.3188 173.9 21.2 .192  77
2022 11 27 11  04 35 59.217   +19 00 46.50  .33326 1.3187 173.9 21.2 .194  73
2022 11 27 12  04 36 00.873   +19 00 15.82  .33312 1.3185 173.9 21.2 .197  70
2022 11 27 13  04 36 02.530   +18 59 45.13  .33299 1.3184 174.0 21.2 .200  66
2022 11 27 14  04 36 04.186   +18 59 14.42  .33285 1.3183 174.0 21.2 .204  63
2022 11 27 15  04 36 05.842   +18 58 43.69  .33271 1.3182 174.0 21.2 .208  59
2022 11 27 16  04 36 07.499   +18 58 12.94  .33258 1.3180 174.0 21.2 .214  56
2022 11 27 17  04 36 09.155   +18 57 42.17  .33244 1.3179 174.1 21.2 .220  53
2022 11 27 18  04 36 10.811   +18 57 11.39  .33230 1.3178 174.1 21.2 .227  50
2022 11 27 19  04 36 12.467   +18 56 40.58  .33217 1.3176 174.1 21.2 .235  47
2022 11 27 20  04 36 14.124   +18 56 09.76  .33203 1.3175 174.2 21.2 .243  44
2022 11 27 21  04 36 15.780   +18 55 38.92  .33190 1.3174 174.2 21.2 .252  41
2022 11 27 22  04 36 17.437   +18 55 08.07  .33176 1.3172 174.2 21.2 .261  38
2022 11 27 23  04 36 19.093   +18 54 37.19  .33163 1.3171 174.2 21.2 .272  36
2022 11 28 00  04 36 20.749   +18 54 06.30  .33149 1.3170 174.3 21.2 .282  34
2022 11 28 01  04 36 22.406   +18 53 35.39  .33136 1.3168 174.3 21.2 .294  31
2022 11 28 02  04 36 24.063   +18 53 04.46  .33122 1.3167 174.3 21.2 .306  29
2022 11 28 03  04 36 25.719   +18 52 33.52  .33109 1.3166 174.3 21.2 .318  27
2022 11 28 04  04 36 27.376   +18 52 02.56  .33096 1.3165 174.4 21.2 .331  25
2022 11 28 05  04 36 29.033   +18 51 31.58  .33082 1.3163 174.4 21.2 .345  24
2022 11 28 06  04 36 30.690   +18 51 00.58  .33069 1.3162 174.4 21.2 .359  22
2022 11 28 07  04 36 32.347   +18 50 29.57  .33056 1.3161 174.4 21.2 .373  20
2022 11 28 08  04 36 34.004   +18 49 58.53  .33042 1.3159 174.5 21.2 .388  19
2022 11 28 09  04 36 35.661   +18 49 27.49  .33029 1.3158 174.5 21.2 .403  18
2022 11 28 10  04 36 37.319   +18 48 56.42  .33016 1.3157 174.5 21.2 .419  16
2022 11 28 11  04 36 38.976   +18 48 25.34  .33003 1.3155 174.5 21.2 .435  15
2022 11 28 12  04 36 40.634   +18 47 54.24  .32990 1.3154 174.6 21.2 .452  14
2022 11 28 13  04 36 42.292   +18 47 23.13  .32976 1.3153 174.6 21.2 .469  13
2022 11 28 14  04 36 43.950   +18 46 51.99  .32963 1.3152 174.6 21.2 .486  12
2022 11 28 15  04 36 45.608   +18 46 20.85  .32950 1.3150 174.6 21.2 .504  11
2022 11 28 16  04 36 47.266   +18 45 49.68  .32937 1.3149 174.7 21.2 .522  10
2022 11 28 17  04 36 48.924   +18 45 18.50  .32924 1.3148 174.7 21.2 .541   9
2022 11 28 18  04 36 50.583   +18 44 47.30  .32911 1.3146 174.7 21.2 .559   8
2022 11 28 19  04 36 52.242   +18 44 16.09  .32898 1.3145 174.7 21.2 .579   7
2022 11 28 20  04 36 53.901   +18 43 44.86  .32885 1.3144 174.7 21.2 .598   6
2022 11 28 21  04 36 55.560   +18 43 13.61  .32872 1.3143 174.8 21.2 .618   5